Location: Ashtead
(51.3000°N, 0.3000°W)
Time: 04:25:11
(UTC+00:00)

Cosmos 2195 Rocket - Pass Details

Date: 26 September 2023
Orbit: 948 x 992 km, 82.9° (Epoch: 29 November)

Event Time Altitude Azimuth Distance (km) Brightness Sun altitude
Exits shadow 02:26:35 82° 19° (NNE) 970 4.4 -30.3°
Drops below altitude 10° 02:32:29 10° 10° (N) 2,706 7.4 -29.6°
Sets 02:35:00 0° 11° (N) 3,663 8.2 -29.3°
